Location: Fort Wayne
(41.1310°N, 85.1290°W)
Time: 19:08:10
(UTC-04:00)

Gbstr 26 Del rocket - Visible Passes

Search period start: 24 October 2014 00:00
Search period end: 02 November 2014 23:00
Orbit: 493 x 1278 km, 51.8° (Epoch: 24 October)

Date Brightness Start Highest point End Pass type
(mag) Time Alt. Az. Time Alt. Az. Time Alt. Az.
24 Oct 4.3 20:27:01 10° WNW 20:30:35 34° SW 20:33:36 16° SSE visible
25 Oct 4.9 20:24:44 10° WNW 20:27:59 25° SW 20:31:37 10° S visible
26 Oct 5.4 20:22:37 10° W 20:25:22 18° SW 20:28:22 10° S visible
27 Oct 5.8 20:20:52 10° WSW 20:22:43 13° SW 20:24:41 10° SSW visible
